| time (UTC) | temp F | wind direction | speed MPH | gust MPH | rain 1hr in | rain 24hr in | rain mn in | humidity % | barometer mb |
| 20260504151010 | 63 | 244 | 7.0 | 19.0 | 0.00 | 0.00 | 0.00 | 38 | 1010.0 |
| 20260504150511 | 63 | 317 | 4.0 | 17.0 | 0.00 | 0.00 | 0.00 | 38 | 1010.1 |
| 20260504141007 | 61 | 277 | 4.0 | 13.0 | 0.00 | 0.00 | 0.00 | 39 | 1010.6 |
| 20260504140507 | 61 | 232 | 2.0 | 17.0 | 0.00 | 0.00 | 0.00 | 43 | 1010.5 |
| 20260504130507 | 57 | 277 | 3.0 | 15.0 | 0.00 | 0.00 | 0.00 | 46 | 1011.1 |
| 20260504110503 | 48 | 291 | 0.0 | 7.0 | 0.00 | 0.00 | 0.00 | 58 | 1011.5 |
| 20260504100508 | 42 | 267 | 0.0 | 4.0 | 0.00 | 0.00 | 0.00 | 67 | 1011.0 |
| 20260504082006 | 42 | 68 | 0.0 | 3.0 | 0.00 | 0.00 | 0.00 | 66 | 1010.7 |
| 20260504081518 | 42 | 262 | 0.0 | 2.0 | 0.00 | 0.00 | 0.00 | 69 | 1010.7 |
| 20260504081008 | 41 | 225 | 0.0 | 2.0 | 0.00 | 0.00 | 0.00 | 70 | 1010.8 |
| 20260504080507 | 41 | 47 | 0.0 | 2.0 | 0.00 | 0.00 | 0.00 | 71 | 1010.8 |
| 20260504050511 | 35 | 288 | 0.0 | 2.0 | 0.00 | 0.00 | 0.00 | 78 | 1011.2 |
| 20260504050016 | 35 | 288 | 0.0 | 0.0 | 0.00 | 0.00 | 0.00 | 76 | 1011.2 |
| 20260504045506 | 35 | 288 | 0.0 | 0.0 | 0.00 | 0.00 | 0.00 | 75 | 1011.2 |
| 20260504045006 | 35 | 288 | 0.0 | 0.0 | 0.00 | 0.00 | 0.00 | 77 | 1011.2 |
| 20260504044521 | 35 | 288 | 0.0 | 0.0 | 0.00 | 0.00 | 0.00 | 76 | 1011.3 |
| 20260504044012 | 34 | 288 | 0.0 | 0.0 | 0.00 | 0.00 | 0.00 | 76 | 1011.3 |
| 20260504043508 | 35 | 288 | 0.0 | 0.0 | 0.00 | 0.00 | 0.00 | 77 | 1011.3 |
| 20260504043026 | 35 | 288 | 0.0 | 0.0 | 0.00 | 0.00 | 0.00 | 78 | 1011.3 |
| 20260504042511 | 35 | 288 | 0.0 | 2.0 | 0.00 | 0.00 | 0.00 | 78 | 1011.3 |
| 20260504042010 | 35 | 288 | 0.0 | 2.0 | 0.00 | 0.00 | 0.00 | 77 | 1011.2 |
| 20260504041526 | 35 | 288 | 0.0 | 2.0 | 0.00 | 0.00 | 0.00 | 78 | 1011.2 |
| 20260504041010 | 35 | 310 | 0.0 | 1.0 | 0.00 | 0.00 | 0.00 | 77 | 1011.1 |
| 20260504040507 | 35 | 310 | 0.0 | 2.0 | 0.00 | 0.00 | 0.00 | 77 | 1011.2 |
| 20260504040010 | 35 | 310 | 0.0 | 2.0 | 0.00 | 0.00 | 0.00 | 75 | 1011.1 |
| 20260504035508 | 35 | 310 | 0.0 | 0.0 | 0.00 | 0.00 | 0.00 | 76 | 1011.1 |
| 20260504035010 | 35 | 310 | 0.0 | 2.0 | 0.00 | 0.00 | 0.00 | 75 | 1011.1 |
| 20260504034516 | 35 | 310 | 0.0 | 2.0 | 0.00 | 0.00 | 0.00 | 76 | 1011.1 |
| 20260504034010 | 36 | 310 | 0.0 | 2.0 | 0.00 | 0.00 | 0.00 | 75 | 1011.1 |
| 20260504033506 | 36 | 310 | 0.0 | 2.0 | 0.00 | 0.00 | 0.00 | 74 | 1011.1 |
| 20260504033023 | 36 | 310 | 0.0 | 0.0 | 0.00 | 0.00 | 0.00 | 72 | 1011.1 |
| 20260504032507 | 36 | 310 | 0.0 | 0.0 | 0.00 | 0.00 | 0.00 | 73 | 1011.0 |
| 20260504032009 | 36 | 310 | 0.0 | 0.0 | 0.00 | 0.00 | 0.00 | 73 | 1011.0 |
| 20260504031528 | 36 | 310 | 0.0 | 0.0 | 0.00 | 0.00 | 0.00 | 73 | 1010.9 |
| 20260504031012 | 36 | 310 | 0.0 | 0.0 | 0.00 | 0.00 | 0.00 | 72 | 1010.8 |
| 20260504030508 | 36 | 310 | 0.0 | 0.0 | 0.00 | 0.00 | 0.00 | 72 | 1010.7 |
| 20260504030026 | 36 | 310 | 0.0 | 0.0 | 0.00 | 0.00 | 0.00 | 71 | 1010.7 |
| 20260504025509 | 37 | 310 | 0.0 | 0.0 | 0.00 | 0.00 | 0.00 | 71 | 1010.8 |
| 20260504025010 | 37 | 310 | 0.0 | 0.0 | 0.00 | 0.00 | 0.00 | 72 | 1010.7 |
| 20260504024516 | 37 | 310 | 0.0 | 0.0 | 0.00 | 0.00 | 0.00 | 71 | 1010.8 |
| 20260504024006 | 37 | 310 | 0.0 | 0.0 | 0.00 | 0.00 | 0.00 | 69 | 1010.8 |
| 20260504023506 | 37 | 310 | 0.0 | 0.0 | 0.00 | 0.00 | 0.00 | 68 | 1010.8 |
| 20260504023003 | 38 | 310 | 0.0 | 0.0 | 0.00 | 0.00 | 0.00 | 68 | 1010.8 |
| 20260504022503 | 38 | 310 | 0.0 | 0.0 | 0.00 | 0.00 | 0.00 | 69 | 1010.7 |
| 20260504022004 | 38 | 310 | 0.0 | 0.0 | 0.00 | 0.00 | 0.00 | 69 | 1010.8 |
| 20260504021504 | 38 | 310 | 0.0 | 0.0 | 0.00 | 0.00 | 0.00 | 69 | 1010.7 |
| 20260504021006 | 38 | 310 | 0.0 | 2.0 | 0.00 | 0.00 | 0.00 | 69 | 1010.7 |
| 20260504020503 | 38 | 310 | 0.0 | 2.0 | 0.00 | 0.00 | 0.00 | 68 | 1010.6 |
| 20260504020008 | 38 | 310 | 0.0 | 1.0 | 0.00 | 0.00 | 0.00 | 67 | 1010.7 |
| 20260504015505 | 39 | 310 | 0.0 | 1.0 | 0.00 | 0.00 | 0.00 | 66 | 1010.7 |
| 20260504015007 | 39 | 310 | 0.0 | 0.0 | 0.00 | 0.00 | 0.00 | 66 | 1010.6 |
| 20260504014510 | 39 | 310 | 0.0 | 0.0 | 0.00 | 0.00 | 0.00 | 65 | 1010.5 |
| 20260504014006 | 39 | 310 | 0.0 | 0.0 | 0.00 | 0.00 | 0.00 | 64 | 1010.5 |
| 20260504013507 | 40 | 310 | 0.0 | 0.0 | 0.00 | 0.00 | 0.00 | 62 | 1010.4 |
| 20260504013017 | 40 | 310 | 0.0 | 0.0 | 0.00 | 0.00 | 0.00 | 61 | 1010.4 |
| 20260504012510 | 40 | 310 | 0.0 | 0.0 | 0.00 | 0.00 | 0.00 | 59 | 1010.3 |
| 20260504012008 | 41 | 310 | 0.0 | 0.0 | 0.00 | 0.00 | 0.00 | 57 | 1010.4 |
| 20260504011503 | 41 | 310 | 0.0 | 0.0 | 0.00 | 0.00 | 0.00 | 57 | 1010.4 |
| 20260504011004 | 42 | 310 | 0.0 | 0.0 | 0.00 | 0.00 | 0.00 | 57 | 1010.3 |
| 20260504010510 | 42 | 310 | 0.0 | 0.0 | 0.00 | 0.00 | 0.00 | 56 | 1010.3 |
| 20260504010005 | 43 | 310 | 0.0 | 0.0 | 0.00 | 0.00 | 0.00 | 54 | 1010.2 |
| 20260504005503 | 43 | 310 | 0.0 | 0.0 | 0.00 | 0.00 | 0.00 | 53 | 1010.2 |
| 20260504005006 | 43 | 310 | 0.0 | 2.0 | 0.00 | 0.00 | 0.00 | 52 | 1010.0 |
| 20260504004509 | 43 | 310 | 0.0 | 2.0 | 0.00 | 0.00 | 0.00 | 51 | 1010.0 |
| 20260504004004 | 44 | 310 | 0.0 | 2.0 | 0.00 | 0.00 | 0.00 | 49 | 1009.8 |
| 20260504003508 | 44 | 310 | 0.0 | 2.0 | 0.00 | 0.00 | 0.00 | 48 | 1009.8 |
| 20260504003014 | 45 | 310 | 0.0 | 0.0 | 0.00 | 0.00 | 0.00 | 47 | 1009.7 |
| 20260504002509 | 45 | 310 | 0.0 | 0.0 | 0.00 | 0.00 | 0.00 | 47 | 1009.5 |
| 20260504002006 | 46 | 310 | 0.0 | 0.0 | 0.00 | 0.00 | 0.00 | 45 | 1009.5 |
| 20260504001521 | 47 | 310 | 0.0 | 2.0 | 0.00 | 0.00 | 0.00 | 43 | 1009.4 |
| 20260504001007 | 48 | 310 | 0.0 | 2.0 | 0.00 | 0.00 | 0.00 | 40 | 1009.3 |
| 20260504000507 | 49 | 306 | 0.0 | 2.0 | 0.00 | 0.00 | 0.00 | 40 | 1009.3 |
| 20260504000010 | 49 | 304 | 0.0 | 2.0 | 0.00 | 0.00 | 0.00 | 39 | 1009.1 |
| 20260503235505 | 49 | 308 | 0.0 | 4.0 | 0.00 | 0.00 | 0.00 | 39 | 1009.1 |
| 20260503235003 | 50 | 236 | 1.0 | 4.0 | 0.00 | 0.00 | 0.00 | 36 | 1009.1 |
| 20260503234505 | 50 | 302 | 1.0 | 3.0 | 0.00 | 0.00 | 0.00 | 37 | 1009.0 |
| 20260503234005 | 51 | 289 | 1.0 | 3.0 | 0.00 | 0.00 | 0.00 | 36 | 1008.9 |
| 20260503233504 | 51 | 279 | 1.0 | 6.0 | 0.00 | 0.00 | 0.00 | 36 | 1008.8 |
| 20260503233011 | 51 | 284 | 1.0 | 7.0 | 0.00 | 0.00 | 0.00 | 37 | 1008.9 |
| 20260503232510 | 51 | 263 | 2.0 | 7.0 | 0.00 | 0.00 | 0.00 | 36 | 1008.8 |
| 20260503232007 | 52 | 5 | 3.0 | 9.0 | 0.00 | 0.00 | 0.00 | 35 | 1008.8 |
| 20260503231516 | 52 | 236 | 4.0 | 9.0 | 0.00 | 0.00 | 0.00 | 34 | 1008.8 |
| 20260503231006 | 52 | 348 | 1.0 | 7.0 | 0.00 | 0.00 | 0.00 | 35 | 1008.7 |
| 20260503230510 | 53 | 286 | 4.0 | 10.0 | 0.00 | 0.00 | 0.00 | 34 | 1008.7 |
| 20260503230022 | 53 | 295 | 2.0 | 10.0 | 0.00 | 0.00 | 0.00 | 35 | 1008.7 |
| 20260503225515 | 53 | 309 | 3.0 | 9.0 | 0.00 | 0.00 | 0.00 | 36 | 1008.8 |
| 20260503225003 | 53 | 275 | 3.0 | 8.0 | 0.00 | 0.00 | 0.00 | 34 | 1008.7 |
| 20260503224506 | 53 | 266 | 3.0 | 10.0 | 0.00 | 0.00 | 0.00 | 36 | 1008.7 |
| 20260503224005 | 53 | 281 | 3.0 | 13.0 | 0.00 | 0.00 | 0.00 | 34 | 1008.7 |
| 20260503223503 | 53 | 146 | 8.0 | 13.0 | 0.00 | 0.00 | 0.00 | 35 | 1008.8 |
| 20260503223006 | 53 | 143 | 1.0 | 9.0 | 0.00 | 0.00 | 0.00 | 37 | 1008.7 |
| 20260503222505 | 53 | 273 | 2.0 | 4.0 | 0.00 | 0.00 | 0.00 | 39 | 1008.7 |
| 20260503222005 | 53 | 268 | 1.0 | 8.0 | 0.00 | 0.00 | 0.00 | 38 | 1008.7 |
| 20260503221513 | 53 | 295 | 1.0 | 12.0 | 0.00 | 0.00 | 0.00 | 37 | 1008.6 |
| 20260503221009 | 53 | 272 | 5.0 | 14.0 | 0.00 | 0.00 | 0.00 | 36 | 1008.7 |
| 20260503220508 | 53 | 263 | 5.0 | 14.0 | 0.00 | 0.00 | 0.00 | 37 | 1008.8 |
| 20260503220021 | 54 | 273 | 5.0 | 14.0 | 0.00 | 0.00 | 0.00 | 35 | 1008.8 |
| 20260503215507 | 53 | 269 | 3.0 | 13.0 | 0.00 | 0.00 | 0.00 | 36 | 1008.7 |
| 20260503215012 | 53 | 272 | 5.0 | 13.0 | 0.00 | 0.00 | 0.00 | 38 | 1008.7 |
| 20260503214531 | 53 | 341 | 3.0 | 12.0 | 0.00 | 0.00 | 0.00 | 35 | 1008.7 |
| 20260503214007 | 53 | 248 | 3.0 | 11.0 | 0.00 | 0.00 | 0.00 | 39 | 1008.7 |
| 20260503213507 | 53 | 265 | 4.0 | 18.0 | 0.00 | 0.00 | 0.00 | 36 | 1008.6 |
| 20260503213008 | 53 | 281 | 8.0 | 18.0 | 0.00 | 0.00 | 0.00 | 36 | 1008.7 |
| 20260503212504 | 53 | 261 | 7.0 | 15.0 | 0.00 | 0.00 | 0.00 | 35 | 1008.6 |
| 20260503212005 | 53 | 307 | 6.0 | 13.0 | 0.00 | 0.00 | 0.00 | 38 | 1008.7 |
| 20260503211513 | 52 | 160 | 3.0 | 13.0 | 0.00 | 0.00 | 0.00 | 39 | 1008.5 |
| 20260503211004 | 52 | 304 | 4.0 | 17.0 | 0.00 | 0.00 | 0.00 | 39 | 1008.7 |
| 20260503210505 | 51 | 261 | 5.0 | 17.0 | 0.00 | 0.00 | 0.00 | 38 | 1008.7 |
| 20260503210037 | 52 | 291 | 5.0 | 15.0 | 0.00 | 0.00 | 0.00 | 39 | 1008.6 |
| 20260503205511 | 51 | 277 | 6.0 | 18.0 | 0.00 | 0.00 | 0.00 | 38 | 1008.6 |
| 20260503205007 | 52 | 352 | 5.0 | 18.0 | 0.00 | 0.00 | 0.00 | 39 | 1008.5 |
| 20260503204524 | 52 | 348 | 5.0 | 17.0 | 0.00 | 0.00 | 0.00 | 38 | 1008.5 |
| 20260503204015 | 53 | 304 | 4.0 | 19.0 | 0.00 | 0.00 | 0.00 | 38 | 1008.4 |
| 20260503203507 | 53 | 276 | 10.0 | 19.0 | 0.00 | 0.00 | 0.00 | 40 | 1008.6 |
| 20260503203026 | 53 | 265 | 7.0 | 14.0 | 0.00 | 0.00 | 0.00 | 38 | 1008.5 |
| 20260503202511 | 52 | 261 | 6.0 | 14.0 | 0.00 | 0.00 | 0.00 | 40 | 1008.5 |
| 20260503202004 | 53 | 265 | 7.0 | 20.0 | 0.00 | 0.00 | 0.00 | 39 | 1008.5 |
| 20260503201508 | 52 | 331 | 8.0 | 20.0 | 0.00 | 0.00 | 0.00 | 42 | 1008.5 |
| 20260503201004 | 51 | 228 | 7.0 | 18.0 | 0.00 | 0.00 | 0.00 | 40 | 1008.6 |
| 20260503200505 | 51 | 268 | 7.0 | 18.0 | 0.00 | 0.00 | 0.00 | 40 | 1008.6 |
| 20260503200015 | 50 | 291 | 6.0 | 18.0 | 0.00 | 0.00 | 0.00 | 40 | 1008.5 |
| 20260503195507 | 50 | 289 | 6.0 | 18.0 | 0.00 | 0.00 | 0.00 | 39 | 1008.7 |
| 20260503195007 | 51 | 235 | 6.0 | 15.0 | 0.00 | 0.00 | 0.00 | 39 | 1008.6 |
| 20260503194519 | 51 | 251 | 6.0 | 16.0 | 0.00 | 0.00 | 0.00 | 41 | 1008.5 |
| 20260503194007 | 53 | 314 | 6.0 | 16.0 | 0.00 | 0.00 | 0.00 | 38 | 1008.6 |
| 20260503193506 | 52 | 263 | 8.0 | 23.0 | 0.00 | 0.00 | 0.00 | 39 | 1008.5 |
| 20260503193023 | 52 | 289 | 6.0 | 23.0 | 0.00 | 0.00 | 0.00 | 39 | 1008.4 |
| 20260503192510 | 50 | 305 | 7.0 | 19.0 | 0.00 | 0.00 | 0.00 | 41 | 1008.6 |
| 20260503192010 | 50 | 281 | 9.0 | 18.0 | 0.00 | 0.00 | 0.00 | 39 | 1008.5 |
| 20260503191524 | 51 | 264 | 8.0 | 18.0 | 0.00 | 0.00 | 0.00 | 39 | 1008.8 |
| 20260503191003 | 50 | 275 | 6.0 | 15.0 | 0.00 | 0.00 | 0.00 | 41 | 1008.8 |
| 20260503190506 | 50 | 319 | 4.0 | 14.0 | 0.00 | 0.00 | 0.00 | 43 | 1008.6 |
| 20260503190012 | 50 | 285 | 6.0 | 19.0 | 0.00 | 0.00 | 0.00 | 40 | 1008.5 |
| 20260503185506 | 50 | 352 | 6.0 | 19.0 | 0.00 | 0.00 | 0.00 | 40 | 1008.6 |
| 20260503185011 | 50 | 267 | 8.0 | 19.0 | 0.00 | 0.00 | 0.00 | 40 | 1008.7 |
| 20260503184520 | 50 | 299 | 5.0 | 18.0 | 0.00 | 0.00 | 0.00 | 40 | 1008.6 |
| 20260503184011 | 51 | 304 | 7.0 | 15.0 | 0.00 | 0.00 | 0.00 | 40 | 1008.7 |
| 20260503183508 | 51 | 61 | 4.0 | 14.0 | 0.00 | 0.00 | 0.00 | 40 | 1008.6 |
| 20260503183024 | 51 | 324 | 4.0 | 16.0 | 0.00 | 0.00 | 0.00 | 41 | 1008.6 |
| 20260503182510 | 51 | 351 | 4.0 | 16.0 | 0.00 | 0.00 | 0.00 | 40 | 1008.6 |
| 20260503182012 | 52 | 234 | 6.0 | 15.0 | 0.00 | 0.00 | 0.00 | 42 | 1008.5 |
| 20260503181524 | 51 | 352 | 5.0 | 15.0 | 0.00 | 0.00 | 0.00 | 40 | 1008.5 |
| 20260503181009 | 50 | 283 | 7.0 | 17.0 | 0.00 | 0.00 | 0.00 | 41 | 1008.7 |
| 20260503180510 | 51 | 277 | 10.0 | 17.0 | 0.00 | 0.00 | 0.00 | 39 | 1008.6 |
| 20260503180028 | 51 | 301 | 2.0 | 17.0 | 0.00 | 0.01 | 0.00 | 39 | 1008.5 |
| 20260503175506 | 50 | 249 | 8.0 | 19.0 | 0.00 | 0.01 | 0.00 | 37 | 1008.6 |
| 20260503175008 | 50 | 288 | 6.0 | 19.0 | 0.00 | 0.01 | 0.00 | 39 | 1008.6 |
| 20260503174512 | 51 | 229 | 8.0 | 19.0 | 0.00 | 0.01 | 0.00 | 39 | 1008.5 |
| 20260503174010 | 51 | 315 | 6.0 | 15.0 | 0.00 | 0.01 | 0.00 | 41 | 1008.6 |
| 20260503173506 | 51 | 350 | 3.0 | 12.0 | 0.00 | 0.01 | 0.00 | 42 | 1008.5 |
| 20260503173018 | 50 | 252 | 5.0 | 16.0 | 0.00 | 0.01 | 0.00 | 44 | 1008.7 |
| 20260503172509 | 50 | 350 | 5.0 | 19.0 | 0.00 | 0.01 | 0.00 | 45 | 1008.9 |
| 20260503172013 | 48 | 250 | 7.0 | 19.0 | 0.00 | 0.01 | 0.00 | 44 | 1009.0 |
| 20260503171524 | 48 | 275 | 7.0 | 14.0 | 0.00 | 0.01 | 0.00 | 44 | 1009.2 |
| 20260503171009 | 48 | 266 | 5.0 | 15.0 | 0.00 | 0.01 | 0.00 | 46 | 1009.0 |
| 20260503170513 | 48 | 267 | 8.0 | 15.0 | 0.00 | 0.01 | 0.00 | 45 | 1008.8 |